When you browse on this site, cookies collect data to enhance your experience and personalize the content and advertising you see.
Visit our Privacy Policy to learn more. By continuing to use the site, you agree to this use of cookies and data.
  • In Lithuania
  • List of Countries
  • For 7 days
  • Water Temperature
  • Weather Map
  • Weather Widgets
  • user-avatar
    Login

    Hourly Weather Namibe

    Today, 28 May, Thursday

    Time Temperature Precipitation Wind Pressure Humidity
    00:00 +24°C° 0 mm 2 mps 759 mmHg 73%
    01:00 +24°C° 0 mm 2 mps 759 mmHg 71%
    02:00 +24°C° 0 mm 2 mps 759 mmHg 69%
    03:00 +24°C° 0 mm 2 mps 759 mmHg 67%
    04:00 +24°C° 0 mm 3 mps 759 mmHg 66%
    05:00 +24°C° 0 mm 3 mps 759 mmHg 63%
    06:00 +24°C° 0 mm 3 mps 759 mmHg 61%
    07:00 +24°C° 0 mm 3 mps 759 mmHg 59%
    08:00 +27°C° 0 mm 2 mps 759 mmHg 48%
    09:00 +30°C° 0 mm 2 mps 759 mmHg 37%
    10:00 +35°C° 0 mm 2 mps 759 mmHg 26%
    11:00 +35°C° 0 mm 3 mps 759 mmHg 27%
    12:00 +36°C° 0 mm 4 mps 759 mmHg 27%
    13:00 +36°C° 0 mm 4 mps 758 mmHg 27%
    14:00 +35°C° 0 mm 5 mps 758 mmHg 30%
    15:00 +34°C° 0 mm 5 mps 757 mmHg 34%
    16:00 +33°C° 0 mm 5 mps 757 mmHg 38%
    17:00 +32°C° 0 mm 5 mps 757 mmHg 44%
    18:00 +29°C° 0 mm 4 mps 758 mmHg 50%
    19:00 +27°C° 0 mm 4 mps 758 mmHg 56%
    20:00 +27°C° 0 mm 4 mps 758 mmHg 53%
    21:00 +27°C° 0 mm 4 mps 758 mmHg 50%
    22:00 +27°C° 0 mm 4 mps 759 mmHg 48%
    23:00 +27°C° 0 mm 4 mps 758 mmHg 45%

    Tomorrow, 29 May, Friday

    Time Temperature Precipitation Wind Pressure Humidity
    00:00 +27°C° 0 mm 3 mps 758 mmHg 42%
    01:00 +27°C° 0 mm 3 mps 758 mmHg 39%
    02:00 +26°C° 0 mm 3 mps 758 mmHg 40%
    03:00 +26°C° 0 mm 3 mps 758 mmHg 40%
    04:00 +26°C° 0 mm 3 mps 758 mmHg 41%
    05:00 +25°C° 0 mm 3 mps 758 mmHg 40%
    06:00 +25°C° 0 mm 3 mps 758 mmHg 40%
    07:00 +25°C° 0 mm 2 mps 758 mmHg 39%
    08:00 +28°C° 0 mm 3 mps 759 mmHg 33%
    09:00 +31°C° 0 mm 3 mps 759 mmHg 27%
    10:00 +34°C° 0 mm 3 mps 759 mmHg 22%
    11:00 +35°C° 0 mm 3 mps 758 mmHg 22%
    12:00 +36°C° 0 mm 4 mps 758 mmHg 23%
    13:00 +37°C° 0 mm 5 mps 757 mmHg 24%
    14:00 +35°C° 0 mm 5 mps 756 mmHg 28%
    15:00 +34°C° 0 mm 5 mps 756 mmHg 33%
    16:00 +32°C° 0 mm 6 mps 756 mmHg 37%
    17:00 +30°C° 0 mm 5 mps 756 mmHg 43%
    18:00 +28°C° 0 mm 5 mps 756 mmHg 49%
    19:00 +26°C° 0 mm 5 mps 757 mmHg 55%
    20:00 +26°C° 0 mm 5 mps 757 mmHg 53%
    21:00 +26°C° 0 mm 4 mps 758 mmHg 51%
    22:00 +26°C° 0 mm 3 mps 758 mmHg 48%
    23:00 +26°C° 0 mm 3 mps 758 mmHg 47%

    Day after tomorrow, 30 May, Saturday

    Time Temperature Precipitation Wind Pressure Humidity
    00:00 +25°C° 0 mm 3 mps 758 mmHg 46%
    01:00 +25°C° 0 mm 3 mps 758 mmHg 45%
    02:00 +25°C° 0 mm 3 mps 757 mmHg 44%
    03:00 +25°C° 0 mm 3 mps 757 mmHg 44%
    04:00 +25°C° 0 mm 3 mps 757 mmHg 44%
    05:00 +25°C° 0 mm 3 mps 757 mmHg 44%
    06:00 +25°C° 0 mm 3 mps 757 mmHg 43%
    07:00 +25°C° 0 mm 3 mps 758 mmHg 43%
    08:00 +28°C° 0 mm 3 mps 758 mmHg 38%
    09:00 +30°C° 0 mm 3 mps 758 mmHg 33%
    10:00 +34°C° 0 mm 3 mps 758 mmHg 28%
    11:00 +34°C° 0 mm 3 mps 758 mmHg 29%
    12:00 +35°C° 0 mm 4 mps 757 mmHg 30%
    13:00 +36°C° 0 mm 5 mps 757 mmHg 31%
    14:00 +34°C° 0 mm 5 mps 756 mmHg 36%
    15:00 +33°C° 0 mm 5 mps 756 mmHg 41%
    16:00 +30°C° 0 mm 5 mps 756 mmHg 45%
    17:00 +29°C° 0 mm 4 mps 756 mmHg 51%
    18:00 +28°C° 0 mm 3 mps 757 mmHg 56%
    19:00 +26°C° 0 mm 2 mps 757 mmHg 62%
    20:00 +26°C° 0 mm 2 mps 757 mmHg 60%
    21:00 +26°C° 0 mm 2 mps 758 mmHg 59%
    22:00 +26°C° 0 mm 2 mps 758 mmHg 58%
    23:00 +25°C° 0 mm 2 mps 758 mmHg 58%

    31 May, Sunday

    Time Temperature Precipitation Wind Pressure Humidity
    00:00 +25°C° 0 mm 3 mps 758 mmHg 59%
    01:00 +23°C° 0 mm 4 mps 758 mmHg 59%
    02:00 +23°C° 0 mm 4 mps 757 mmHg 59%
    03:00 +23°C° 0 mm 4 mps 757 mmHg 59%
    04:00 +23°C° 0 mm 4 mps 757 mmHg 59%
    05:00 +24°C° 0 mm 3 mps 757 mmHg 56%
    06:00 +24°C° 0 mm 3 mps 758 mmHg 54%
    07:00 +25°C° 0 mm 3 mps 758 mmHg 52%
    08:00 +28°C° 0 mm 3 mps 758 mmHg 43%
    09:00 +30°C° 0 mm 2 mps 758 mmHg 35%
    10:00 +34°C° 0 mm 2 mps 758 mmHg 26%
    11:00 +35°C° 0 mm 3 mps 758 mmHg 27%
    12:00 +36°C° 0 mm 3 mps 757 mmHg 27%
    13:00 +36°C° 0 mm 3 mps 757 mmHg 27%
    14:00 +35°C° 0 mm 4 mps 756 mmHg 29%
    15:00 +35°C° 0 mm 4 mps 756 mmHg 32%
    16:00 +34°C° 0 mm 4 mps 756 mmHg 34%
    17:00 +32°C° 0 mm 4 mps 756 mmHg 41%
    18:00 +29°C° 0 mm 3 mps 757 mmHg 48%
    19:00 +27°C° 0 mm 3 mps 757 mmHg 56%
    20:00 +27°C° 0 mm 2 mps 758 mmHg 54%
    21:00 +26°C° 0 mm 2 mps 758 mmHg 52%
    22:00 +26°C° 0 mm 1 mps 758 mmHg 50%
    23:00 +26°C° 0 mm 2 mps 759 mmHg 48%

    1 June, Monday

    Time Temperature Precipitation Wind Pressure Humidity
    00:00 +26°C° 0 mm 2 mps 759 mmHg 47%
    01:00 +25°C° 0 mm 2 mps 759 mmHg 46%
    02:00 +25°C° 0 mm 3 mps 758 mmHg 45%
    03:00 +25°C° 0 mm 3 mps 758 mmHg 44%
    04:00 +25°C° 0 mm 3 mps 758 mmHg 43%
    05:00 +26°C° 0 mm 3 mps 758 mmHg 42%
    06:00 +26°C° 0 mm 3 mps 758 mmHg 41%
    07:00 +26°C° 0 mm 2 mps 758 mmHg 40%
    08:00 +29°C° 0 mm 2 mps 758 mmHg 34%
    09:00 +32°C° 0 mm 2 mps 759 mmHg 28%
    10:00 +36°C° 0 mm 2 mps 759 mmHg 22%
    11:00 +36°C° 0 mm 3 mps 758 mmHg 24%
    12:00 +37°C° 0 mm 3 mps 757 mmHg 25%
    13:00 +37°C° 0 mm 3 mps 757 mmHg 26%
    14:00 +36°C° 0 mm 4 mps 756 mmHg 31%
    15:00 +34°C° 0 mm 4 mps 756 mmHg 35%
    16:00 +33°C° 0 mm 4 mps 756 mmHg 39%
    17:00 +30°C° 0 mm 3 mps 756 mmHg 47%
    18:00 +29°C° 0 mm 2 mps 757 mmHg 54%
    19:00 +27°C° 0 mm 1 mps 757 mmHg 62%
    20:00 +27°C° 0 mm 1 mps 758 mmHg 60%
    21:00 +27°C° 0 mm 2 mps 758 mmHg 57%
    22:00 +27°C° 0 mm 2 mps 758 mmHg 55%
    23:00 +27°C° 0 mm 1 mps 758 mmHg 53%

    2 June, Tuesday

    Time Temperature Precipitation Wind Pressure Humidity
    00:00 +26°C° 0 mm 1 mps 758 mmHg 51%
    01:00 +24°C° 0 mm 0 mps 758 mmHg 49%
    02:00 +26°C° 0 mm 1 mps 758 mmHg 50%
    03:00 +26°C° 0 mm 1 mps 758 mmHg 50%
    04:00 +25°C° 0 mm 1 mps 758 mmHg 51%
    05:00 +25°C° 0 mm 1 mps 758 mmHg 51%
    06:00 +25°C° 0 mm 1 mps 758 mmHg 51%
    07:00 +25°C° 0 mm 1 mps 758 mmHg 51%
    08:00 +28°C° 0 mm 1 mps 758 mmHg 43%
    09:00 +31°C° 0 mm 1 mps 758 mmHg 35%
    10:00 +35°C° 0 mm 2 mps 758 mmHg 26%
    11:00 +35°C° 0 mm 2 mps 757 mmHg 27%
    12:00 +36°C° 0 mm 3 mps 757 mmHg 28%
    13:00 +36°C° 0 mm 4 mps 756 mmHg 29%
    14:00 +35°C° 0 mm 4 mps 756 mmHg 34%
    15:00 +33°C° 0 mm 4 mps 755 mmHg 39%
    16:00 +32°C° 0 mm 5 mps 755 mmHg 44%
    17:00 +29°C° 0 mm 4 mps 756 mmHg 52%
    18:00 +28°C° 0 mm 3 mps 756 mmHg 59%
    19:00 +27°C° 0 mm 3 mps 757 mmHg 67%
    20:00 +27°C° 0 mm 3 mps 757 mmHg 68%
    21:00 +26°C° 0 mm 2 mps 757 mmHg 68%
    22:00 +26°C° 0 mm 2 mps 758 mmHg 69%
    23:00 +26°C° 0 mm 2 mps 758 mmHg 66%
    Show more